Regional Weather Roundup
Issued by NWS Bismarck, ND

Home | Current Version | Previous Version | Text Only | Print | Product List | Glossary On
Versions: 1 2 3 4 5 6 7 8 9 10 11 12 13 14 15 16 17 18 19 20 21 22 23 24 25 26 27 28 29 30 31 32 33 34 35 36 37 38 39 40 41 42 43 44 45 46 47 48 49 50
000
ASUS43 KBIS 162159
RWRBIS

NWR BROADCAST TEXT
NATIONAL WEATHER SERVICE BISMARCK ND
500 PM CDT TUE SEP 16 2014

NOTE: "FAIR" INDICATES FEW OR NO CLOUDS BELOW 12,000 FEET WITH NO
SIGNIFICANT WEATHER AND/OR OBSTRUCTIONS TO VISIBILITY.


CITY           SKY/WX    TMP DP  RH WIND       PRES   REMARKS
WILLISTON      SUNNY     75  33  21 VRB3      29.93F
MINOT          SUNNY     73  43  33 CALM      29.92F
MINOT AFB      NOT AVBL
BISMARCK       SUNNY     76  45  33 CALM      29.93F
DICKINSON      NOT AVBL
GARRISON         N/A     72  44  36 SW8       29.93F
HETTINGER ARPT SUNNY     77  44  30 VRB5      29.94F
JAMESTOWN      NOT AVBL
CARRINGTON     FAIR      72  39  30 SE7       29.95F
HARVEY         FAIR      72  39  30 SE5       29.93F
LINTON         FAIR      75  46  35 CALM      29.92F
OAKES            N/A     72  52  49 S8        29.94F
WATFORD CITY   FAIR      73  32  21 NE6       29.92S
$$

CITY           SKY/WX    TMP DP  RH WIND       PRES   REMARKS
GRAND FORKS    PTSUNNY   74  42  31 VRB7      29.93F
GRAND FORKS AF NOT AVBL
DEVILS LAKE    SUNNY     72  39  30 SW5       29.93S
FARGO          SUNNY     71  41  33 S5        29.96F
CAVALIER       FAIR      73  43  33 E5        29.91S
GRAFTON        FAIR      73  41  31 SW9       29.92S
GWINNER        CLEAR     73  50  43 SE8       29.95F
LANGDON        FAIR      73  37  27 W8        29.93S
$$

CITY           SKY/WX    TMP DP  RH WIND       PRES   REMARKS
ABERDEEN       SUNNY     70  52  52 S6        29.93F
MOBRIDGE       SUNNY     74  50  42 S6        29.90F
RAPID CITY     SUNNY     80  44  27 CALM      29.96F
GLASGOW        SUNNY     76  42  29 S8        29.91F
SIDNEY         SUNNY     75  39  27 CALM      29.94F
WOLF POINT     SUNNY     77  38  24 E3        29.92F
GLENDIVE       SUNNY     73  45  35 CALM      29.95F
MILES CITY     MOSUNNY   79  44  28 VRB6      29.93F
BAKER          SUNNY     78  46  32 VRB3      29.95F
$$

CITY           SKY/WX    TMP DP  RH WIND       PRES   REMARKS
BILLINGS       PTSUNNY   84  34  16 S5        29.96F
GREAT FALLS    CLOUDY    80  40  23 SW10      29.93F
$$




USA.gov is the U.S. government's official web portal to all federal, state and local government web resources and services.